2016-08-18 00:02:41 r, 15.88m,0000000039Hz,0000011751c,0000000.026s, 035.1C,00002195
2016-08-18 00:12:41 r, 15.82m,0000000043Hz,0000011108c,0000000.024s, 034.8C,00002195
2016-08-18 00:22:41 r, 16.01m,0000000034Hz,0000013242c,0000000.029s, 034.4C,00002195
2016-08-18 00:32:41 r, 16.02m,0000000034Hz,0000013429c,0000000.029s, 034.4C,00002195
2016-08-18 00:42:41 r, 16.23m,0000000028Hz,0000016132c,0000000.035s, 034.8C,00002195
2016-08-18 00:52:41 r, 16.35m,0000000025Hz,0000018070c,0000000.039s, 034.8C,00002195
2016-08-18 01:02:41 r, 16.11m,0000000032Hz,0000014442c,0000000.031s, 035.1C,00002195
2016-08-18 01:12:41 r, 16.02m,0000000034Hz,0000013368c,0000000.029s, 035.1C,00002195
2016-08-18 01:22:41 r, 15.96m,0000000036Hz,0000012566c,0000000.027s, 035.4C,00002195
2016-08-18 01:32:41 r, 15.89m,0000000039Hz,0000011820c,0000000.026s, 035.4C,00002195
2016-08-18 01:42:41 r, 16.07m,0000000033Hz,0000014011c,0000000.030s, 035.4C,00002195
2016-08-18 01:52:41 r, 16.02m,0000000035Hz,0000013344c,0000000.029s, 035.7C,00002195
2016-08-18 02:02:41 r, 15.92m,0000000037Hz,0000012149c,0000000.026s, 035.7C,00002195
2016-08-18 02:12:41 r, 15.87m,0000000040Hz,0000011544c,0000000.025s, 035.7C,00002195
2016-08-18 02:22:41 r, 15.96m,0000000037Hz,0000012582c,0000000.027s, 035.7C,00002195
2016-08-18 02:32:41 r, 16.03m,0000000035Hz,0000013444c,0000000.029s, 035.7C,00002195
2016-08-18 02:42:41 r, 16.06m,0000000032Hz,0000013823c,0000000.030s, 035.7C,00002195
2016-08-18 02:52:41 r, 16.08m,0000000033Hz,0000014086c,0000000.031s, 035.4C,00002195
2016-08-18 03:02:41 r, 16.11m,0000000032Hz,0000014492c,0000000.031s, 035.4C,00002195
2016-08-18 03:12:41 r, 16.12m,0000000032Hz,0000014592c,0000000.032s, 035.1C,00002195
2016-08-18 03:22:41 r, 16.07m,0000000032Hz,0000013932c,0000000.030s, 035.1C,00002195
2016-08-18 03:32:41 r, 16.02m,0000000035Hz,0000013425c,0000000.029s, 034.8C,00002195
2016-08-18 03:42:41 r, 16.02m,0000000035Hz,0000013343c,0000000.029s, 034.8C,00002195
2016-08-18 03:52:41 r, 15.97m,0000000036Hz,0000012698c,0000000.028s, 034.4C,00002195
2016-08-18 04:02:41 r, 16.00m,0000000035Hz,0000013141c,0000000.029s, 034.1C,00002195
2016-08-18 04:12:41 r, 16.04m,0000000034Hz,0000013524c,0000000.029s, 034.1C,00002195
2016-08-18 04:22:41 r, 16.02m,0000000035Hz,0000013407c,0000000.029s, 033.8C,00002195
2016-08-18 04:32:41 r, 16.14m,0000000031Hz,0000014786c,0000000.032s, 033.8C,00002195
2016-08-18 04:42:41 r, 16.29m,0000000027Hz,0000017210c,0000000.037s, 033.5C,00002195
2016-08-18 04:52:41 r, 16.25m,0000000027Hz,0000016634c,0000000.036s, 033.5C,00002195
2016-08-18 05:02:41 r, 16.18m,0000000030Hz,0000015447c,0000000.034s, 033.5C,00002195
2016-08-18 05:12:41 r, 16.17m,0000000030Hz,0000015323c,0000000.033s, 033.8C,00002195
2016-08-18 05:22:42 r, 16.13m,0000000031Hz,0000014731c,0000000.032s, 033.8C,00002195
2016-08-18 05:32:41 r, 15.96m,0000000036Hz,0000012630c,0000000.027s, 034.1C,00002195
2016-08-18 05:42:41 r, 15.30m,0000000066Hz,0000006863c,0000000.015s, 034.1C,00002195
2016-08-18 05:52:41 r, 13.73m,0000000286Hz,0000000000c,0000000.000s, 034.1C,00002195
2016-08-18 06:02:41 r, 11.59m,0000002072Hz,0000000000c,0000000.000s, 034.1C,00002195
2016-08-18 06:12:41 r, 09.83m,0000010413Hz,0000000000c,0000000.000s, 034.1C,00002195
2016-08-18 06:22:41 r, 08.67m,0000030325Hz,0000000000c,0000000.000s, 034.1C,00002195
2016-08-18 06:32:42 r, 07.89m,0000061957Hz,0000000000c,0000000.000s, 033.8C,00002195
2016-08-18 06:42:41 r, 07.19m,0000118506Hz,0000000000c,0000000.000s, 033.8C,00002195
2016-08-18 06:52:41 r, 07.07m,0000132971Hz,0000000000c,0000000.000s, 034.1C,00002195
2016-08-18 07:02:42 r, 06.65m,0000193883Hz,0000000000c,0000000.000s, 034.1C,00002195
2016-08-18 07:12:42 r, 06.51m,0000220432Hz,0000000000c,0000000.000s, 033.8C,00002195
2016-08-18 07:22:41 r, 06.29m,0000272895Hz,0000000000c,0000000.000s, 034.1C,00002195
2016-08-18 07:32:41 r, 06.04m,0000342436Hz,0000000000c,0000000.000s, 034.1C,00002195
2016-08-18 07:42:41 r, 05.99m,0000359015Hz,0000000000c,0000000.000s, 034.1C,00002195
2016-08-18 07:52:41 r, 00.00m,0000486703Hz,0000000000c,0000000.000s, 034.1C,00002195
2016-08-18 08:02:43 r, 00.00m,0000564647Hz,0000000000c,0000000.000s, 034.1C,00002195
2016-08-18 08:12:41 r, 00.00m,0000564668Hz,0000000000c,0000000.000s, 034.4C,00002195
2016-08-18 08:22:41 r, 00.00m,0000564691Hz,0000000000c,0000000.000s, 034.8C,00002195
2016-08-18 08:32:42 r, 00.00m,0000564783Hz,0000000000c,0000000.000s, 035.1C,00002195
2016-08-18 08:42:41 r, 00.00m,0000564812Hz,0000000000c,0000000.000s, 035.7C,00002195
2016-08-18 08:52:41 r, 00.00m,0000564857Hz,0000000000c,0000000.000s, 036.0C,00002195
2016-08-18 09:02:41 r, 00.00m,0000564861Hz,0000000000c,0000000.000s, 036.4C,00002195
2016-08-18 09:12:41 r, 00.00m,0000564897Hz,0000000000c,0000000.000s, 037.0C,00002195
2016-08-18 09:22:41 r, 00.00m,0000565014Hz,0000000000c,0000000.000s, 037.3C,00002195
2016-08-18 09:32:41 r, 00.00m,0000565076Hz,0000000000c,0000000.000s, 038.0C,00002195
2016-08-18 09:42:42 r, 00.00m,0000565246Hz,0000000000c,0000000.000s, 038.6C,00002195
2016-08-18 09:52:41 r, 00.00m,0000565268Hz,0000000000c,0000000.000s, 039.3C,00002195
2016-08-18 10:02:42 r, 00.00m,0000565250Hz,0000000000c,0000000.000s, 039.9C,00002195
2016-08-18 10:12:42 r, 00.00m,0000565335Hz,0000000000c,0000000.000s, 040.9C,00002195
2016-08-18 10:22:41 r, 00.00m,0000565393Hz,0000000000c,0000000.000s, 041.9C,00002195
2016-08-18 10:32:41 r, 00.00m,0000565498Hz,0000000000c,0000000.000s, 042.5C,00002195
2016-08-18 10:42:42 r, 00.00m,0000565562Hz,0000000000c,0000000.000s, 043.1C,00002195
2016-08-18 10:52:42 r, 00.00m,0000565457Hz,0000000000c,0000000.000s, 043.1C,00002195
2016-08-18 11:02:42 r, 00.00m,0000565394Hz,0000000000c,0000000.000s, 041.9C,00002195
2016-08-18 11:12:42 r, 00.00m,0000565451Hz,0000000000c,0000000.000s, 041.9C,00002195
2016-08-18 11:22:41 r, 00.00m,0000565370Hz,0000000000c,0000000.000s, 041.2C,00002195
2016-08-18 11:32:41 r, 00.00m,0000565323Hz,0000000000c,0000000.000s, 040.6C,00002195
2016-08-18 11:42:41 r, 00.00m,0000565269Hz,0000000000c,0000000.000s, 040.6C,00002195
2016-08-18 11:52:41 r, 00.00m,0000565322Hz,0000000000c,0000000.000s, 040.9C,00002195
2016-08-18 12:02:43 r, 00.00m,0000565513Hz,0000000000c,0000000.000s, 042.2C,00002195
2016-08-18 12:12:41 r, 00.00m,0000565556Hz,0000000000c,0000000.000s, 043.1C,00002195
2016-08-18 12:22:41 r, 00.00m,0000565615Hz,0000000000c,0000000.000s, 043.8C,00002195
2016-08-18 12:32:41 r, 00.00m,0000565685Hz,0000000000c,0000000.000s, 045.1C,00002195
2016-08-18 12:42:42 r, 00.00m,0000565463Hz,0000000000c,0000000.000s, 043.1C,00002195
2016-08-18 12:52:42 r, 00.00m,0000565498Hz,0000000000c,0000000.000s, 043.1C,00002195
2016-08-18 13:02:41 r, 00.00m,0000565549Hz,0000000000c,0000000.000s, 043.8C,00002195
2016-08-18 13:12:42 r, 00.00m,0000565484Hz,0000000000c,0000000.000s, 043.1C,00002195
2016-08-18 13:22:41 r, 00.00m,0000565400Hz,0000000000c,0000000.000s, 043.1C,00002195
2016-08-18 13:32:41 r, 00.00m,0000565493Hz,0000000000c,0000000.000s, 043.1C,00002195
2016-08-18 13:42:41 r, 00.00m,0000565438Hz,0000000000c,0000000.000s, 042.8C,00002195
2016-08-18 13:52:41 r, 00.00m,0000565434Hz,0000000000c,0000000.000s, 043.1C,00002195
2016-08-18 14:02:41 r, 00.00m,0000565571Hz,0000000000c,0000000.000s, 044.1C,00002195
2016-08-18 14:12:41 r, 00.00m,0000565661Hz,0000000000c,0000000.000s, 045.4C,00002195
2016-08-18 14:22:41 r, 00.00m,0000565844Hz,0000000000c,0000000.000s, 047.0C,00002195
2016-08-18 14:32:41 r, 00.00m,0000565886Hz,0000000000c,0000000.000s, 047.0C,00002195
2016-08-18 14:42:42 r, 00.00m,0000565986Hz,0000000000c,0000000.000s, 048.3C,00002195
2016-08-18 14:52:41 r, 00.00m,0000565994Hz,0000000000c,0000000.000s, 048.9C,00002195
2016-08-18 15:02:42 r, 00.00m,0000566146Hz,0000000000c,0000000.000s, 051.2C,00002195
2016-08-18 15:12:42 r, 00.00m,0000566087Hz,0000000000c,0000000.000s, 051.5C,00002195
2016-08-18 15:22:41 r, 00.00m,0000566014Hz,0000000000c,0000000.000s, 050.2C,00002195
2016-08-18 15:32:41 r, 00.00m,0000566138Hz,0000000000c,0000000.000s, 051.2C,00002195
2016-08-18 15:42:41 r, 00.00m,0000566069Hz,0000000000c,0000000.000s, 051.8C,00002195
2016-08-18 15:52:41 r, 00.00m,0000566123Hz,0000000000c,0000000.000s, 051.5C,00002195
2016-08-18 16:02:41 r, 00.00m,0000566140Hz,0000000000c,0000000.000s, 051.5C,00002195
2016-08-18 16:12:41 r, 00.00m,0000566071Hz,0000000000c,0000000.000s, 051.8C,00002195
2016-08-18 16:22:41 r, 00.00m,0000566105Hz,0000000000c,0000000.000s, 051.5C,00002195
2016-08-18 16:32:44 r, 00.00m,0000566034Hz,0000000000c,0000000.000s, 051.5C,00002195
2016-08-18 16:42:42 r, 00.00m,0000565926Hz,0000000000c,0000000.000s, 050.9C,00002195
2016-08-18 16:52:41 r, 00.00m,0000565818Hz,0000000000c,0000000.000s, 049.6C,00002195
2016-08-18 17:02:42 r, 00.00m,0000565762Hz,0000000000c,0000000.000s, 048.9C,00002195
2016-08-18 17:12:42 r, 00.00m,0000565691Hz,0000000000c,0000000.000s, 048.3C,00002195
2016-08-18 17:22:41 r, 00.00m,0000565628Hz,0000000000c,0000000.000s, 047.0C,00002195
2016-08-18 17:32:41 r, 00.00m,0000565455Hz,0000000000c,0000000.000s, 046.0C,00002195
2016-08-18 17:42:42 r, 00.00m,0000565554Hz,0000000000c,0000000.000s, 045.7C,00002195
2016-08-18 17:52:41 r, 00.00m,0000565544Hz,0000000000c,0000000.000s, 046.4C,00002195
2016-08-18 18:02:41 r, 00.00m,0000565501Hz,0000000000c,0000000.000s, 045.7C,00002195
2016-08-18 18:12:44 r, 00.00m,0000565423Hz,0000000000c,0000000.000s, 045.7C,00002195
2016-08-18 18:22:41 r, 00.00m,0000565424Hz,0000000000c,0000000.000s, 045.7C,00002195
2016-08-18 18:32:41 r, 00.00m,0000565438Hz,0000000000c,0000000.000s, 045.1C,00002195
2016-08-18 18:42:42 r, 00.00m,0000565417Hz,0000000000c,0000000.000s, 044.8C,00002195
2016-08-18 18:52:41 r, 00.00m,0000565323Hz,0000000000c,0000000.000s, 044.1C,00002195
2016-08-18 19:02:41 r, 00.00m,0000565344Hz,0000000000c,0000000.000s, 043.5C,00002195
2016-08-18 19:12:41 r, 00.00m,0000565275Hz,0000000000c,0000000.000s, 043.1C,00002195
2016-08-18 19:22:41 r, 00.00m,0000565090Hz,0000000000c,0000000.000s, 042.5C,00002195
2016-08-18 19:32:41 r, 00.00m,0000565099Hz,0000000000c,0000000.000s, 041.9C,00002195
2016-08-18 19:42:44 r, 00.00m,0000565067Hz,0000000000c,0000000.000s, 041.2C,00002195
2016-08-18 19:52:41 r, 00.00m,0000564974Hz,0000000000c,0000000.000s, 040.2C,00002195
2016-08-18 20:02:41 r, 00.00m,0000546841Hz,0000000000c,0000000.000s, 039.6C,00002195
2016-08-18 20:12:42 r, 06.39m,0000246704Hz,0000000000c,0000000.000s, 039.0C,00002195
2016-08-18 20:22:43 r, 06.49m,0000225388Hz,0000000000c,0000000.000s, 038.3C,00002195
2016-08-18 20:32:41 r, 07.18m,0000119628Hz,0000000000c,0000000.000s, 037.7C,00002195
2016-08-18 20:42:41 r, 07.97m,0000057514Hz,0000000000c,0000000.000s, 037.0C,00002195
2016-08-18 20:52:41 r, 09.18m,0000018994Hz,0000000000c,0000000.000s, 036.7C,00002195
2016-08-18 21:02:41 r, 10.92m,0000003819Hz,0000000000c,0000000.000s, 036.4C,00002195
2016-08-18 21:12:42 r, 12.81m,0000000670Hz,0000000000c,0000000.000s, 036.0C,00002195
2016-08-18 21:22:41 r, 14.81m,0000000106Hz,0000004385c,0000000.010s, 035.7C,00002195
2016-08-18 21:32:41 r, 16.37m,0000000025Hz,0000018417c,0000000.040s, 035.7C,00002195
2016-08-18 21:42:41 r, 17.35m,0000000011Hz,0000045105c,0000000.098s, 035.4C,00002195
2016-08-18 21:52:41 r, 17.90m,0000000007Hz,0000075438c,0000000.164s, 035.4C,00002195
2016-08-18 22:02:41 r, 18.12m,0000000005Hz,0000091948c,0000000.200s, 035.1C,00002195
2016-08-18 22:12:41 r, 18.16m,0000000005Hz,0000095784c,0000000.208s, 035.1C,00002195
2016-08-18 22:22:41 r, 18.20m,0000000004Hz,0000099787c,0000000.217s, 034.8C,00002195
2016-08-18 22:32:41 r, 18.18m,0000000005Hz,0000096907c,0000000.210s, 034.4C,00002195
2016-08-18 22:42:41 r, 18.15m,0000000005Hz,0000094336c,0000000.205s, 034.4C,00002195
2016-08-18 22:52:41 r, 18.14m,0000000005Hz,0000094030c,0000000.204s, 034.1C,00002195
2016-08-18 23:02:41 r, 18.10m,0000000006Hz,0000090286c,0000000.196s, 034.1C,00002195
2016-08-18 23:12:42 r, 18.13m,0000000005Hz,0000092842c,0000000.201s, 033.8C,00002195
2016-08-18 23:22:41 r, 18.11m,0000000005Hz,0000091187c,0000000.198s, 033.8C,00002195
2016-08-18 23:32:41 r, 18.10m,0000000005Hz,0000090247c,0000000.196s, 033.8C,00002195
2016-08-18 23:42:41 r, 18.07m,0000000006Hz,0000088408c,0000000.192s, 033.5C,00002195
2016-08-18 23:52:41 r, 18.06m,0000000006Hz,0000087632c,0000000.190s, 033.5C,00002195
